STARLINK-32748, 62524

Orbit data source: Space-Track

STARLINK-32748, 62524 is a payload satellite owned by SpaceX/Seattle (US) in LEO that was launched on Wed, 08 Jan 2025 UTC via an FALCON 9 launch vehicle from the Air Force Eastern Test Range (AFETR). Payloads include a variety of satellites, spacecraft, and rockets equipped with specific instruments for various scientific and technological missions. These include communications satellites like Starlink; space stations such as the ISS; scientific satellites like the Hubble; Earth observation satellites from companies like Planet Labs, Umbra, and HawkEye 360; GPS; miniature CubeSats for education and research; and military/defense satellites.

Loading next visibility...
STARLINK-32748 details
Identifier
62524, 2025-004P
Orbit
LEO
Last TLE update15 hours ago
Origin
Flag of USSpaceX/Seattle (US)
ManufacturerSpaceX/Seattle
MissionOperational spacecraft
Bus & MotorSTARLINK V2M, Unknown motor
Mass730 kg wet, ~700 kg dry
Launch date (UTC)
2025-01-08 (1 month ago)
Launch vehicle
FALCON 9
Launch site
Air Force Eastern Test Range (AFETR)
Object type
Payload
Rocket body
Debris
Shape & HBRUnknown
Radar Cross SectionLarge (>1 m²)

Expand to show TLE details & history

TLE from 15 hours ago
0 STARLINK-32748
1 62524U 25004P   25046.86862022  .00002159  00000-0  58970-4 0  9991
2 62524  43.0007 248.3970 0001182 263.3018  96.7704 15.40680098  7251
Epoch: 2025-02-15T20:50Z
Definitive object data (Epoch: 2025-02-15T20:50:48.787Z)
Latitude
Longitude149.58387°
Altitude443.97 km
Speed7.647 km/s
True Right ascension16h 33m 35s
True Declination0° 00' 00"
Sunlit
Object was in daylight at TLE epoch
Visualization TLE readout
Latitude-14.7783°
Longitude129.53092°
Altitude446.669 km
Speed7.645 km/s
Apparent Right ascension15h 36m 47s
Apparent Declination-73° 32' 32"
Sunlit
Object is in daylight
Visualization observer readout
Local Sidereal Time15:05:11
Azimuth177.566° S
Elevation-23.587°
Doppler factor1
Orbital elements
Apogee altitude446.864 km
Perigee altitude445.25 km
Semi-major axis6,824.194 km
Eccentricity0.0001182
Inclination43.0007°
RAAN248.397°
Arg. of periapsis263.3018°
True anomaly96.78385°
Mean anomaly96.7704°
Eccentric anomaly96.77713°
Mean motion3.85005 °/min
BSTAR0.00005897
Orbital period93.51 mins
Loading maneuver chart data...
Loading historical data...
Loading historical data...
Loading historical data...
Loading historical data...
Loading historical data...
Loading historical data...
Loading historical data...

STARLINK-32748 Visibility forecast

Observer location: undefined°, undefined

Span
Click to sort rows by Start time (UTC) header in descending order
Start Az.
Max El. time (UTC)
Max El. Az.
Max El.
End time (UTC)
End Az.
5 mins2025-02-16 17:19:41.489Z238.631° WSW2025-02-16 17:21:41.489Z153.654° SSE43.582°2025-02-16 17:24:41.489Z74.767° E
5 mins2025-02-16 18:57:41.489Z285.637° WNW2025-02-16 18:59:41.489Z344.364° N37.548°2025-02-16 19:02:41.489Z70.253° E
5 mins2025-02-16 20:35:41.489Z292.537° NW2025-02-16 20:37:41.489Z324.791° NNW40.174°2025-02-16 20:40:41.489Z94.411° ESE
4 mins2025-02-16 22:14:41.489Z254.957° W2025-02-16 22:15:41.489Z226.467° WSW28.317°2025-02-16 22:18:41.489Z148.502° SSE
|